| time (UTC) | temp F | wind direction | speed MPH | gust MPH | rain 1hr in | rain 24hr in | rain mn in | humidity % | barometer mb |
| 20260506173024 | 59 | 131 | 2.0 | 8.0 | 0.12 | 0.14 | 0.13 | 92 | 1005.8 |
| 20260506171528 | 59 | 205 | 3.0 | 9.0 | 0.09 | 0.10 | 0.09 | 91 | 1005.9 |
| 20260506170026 | 60 | 181 | 0.0 | 3.0 | 0.05 | 0.06 | 0.05 | 91 | 1005.9 |
| 20260506164511 | 60 | 268 | 1.0 | 3.0 | 0.03 | 0.04 | 0.03 | 88 | 1006.1 |
| 20260506163024 | 61 | 202 | 1.0 | 5.0 | 0.01 | 0.02 | 0.01 | 85 | 1006.2 |
| 20260506161521 | 61 | 292 | 1.0 | 5.0 | 0.00 | 0.01 | 0.00 | 85 | 1006.2 |
| 20260506160024 | 61 | 178 | 1.0 | 6.0 | 0.00 | 0.01 | 0.00 | 84 | 1006.5 |
| 20260506154529 | 61 | 236 | 1.0 | 4.0 | 0.00 | 0.01 | 0.00 | 83 | 1006.8 |
| 20260506153021 | 61 | 270 | 2.0 | 8.0 | 0.00 | 0.01 | 0.00 | 83 | 1007.1 |
| 20260506151519 | 61 | 244 | 2.0 | 8.0 | 0.00 | 0.01 | 0.00 | 80 | 1007.3 |
| 20260506150022 | 61 | 187 | 2.0 | 7.0 | 0.00 | 0.01 | 0.00 | 80 | 1007.4 |
| 20260506144526 | 61 | 252 | 1.0 | 7.0 | 0.00 | 0.01 | 0.00 | 80 | 1007.2 |
| 20260506143029 | 61 | 289 | 1.0 | 7.0 | 0.00 | 0.01 | 0.00 | 80 | 1007.0 |
| 20260506141517 | 60 | 254 | 3.0 | 9.0 | 0.00 | 0.01 | 0.00 | 81 | 1007.2 |
| 20260506140023 | 61 | 246 | 2.0 | 10.0 | 0.00 | 0.01 | 0.00 | 80 | 1007.2 |
| 20260506134525 | 60 | 236 | 2.0 | 6.0 | 0.00 | 0.01 | 0.00 | 81 | 1007.2 |
| 20260506133025 | 59 | 223 | 0.0 | 8.0 | 0.00 | 0.01 | 0.00 | 82 | 1007.3 |
| 20260506131528 | 59 | 203 | 0.0 | 6.0 | 0.00 | 0.01 | 0.00 | 83 | 1007.6 |
| 20260506130022 | 59 | 159 | 0.0 | 7.0 | 0.00 | 0.01 | 0.00 | 83 | 1007.9 |
| 20260506124522 | 58 | 259 | 4.0 | 7.0 | 0.00 | 0.01 | 0.00 | 84 | 1007.7 |
| 20260506123026 | 58 | 240 | 3.0 | 9.0 | 0.00 | 0.01 | 0.00 | 84 | 1007.4 |
| 20260506121525 | 58 | 92 | 1.0 | 6.0 | 0.00 | 0.01 | 0.00 | 84 | 1007.2 |
| 20260506120023 | 57 | 360 | 1.0 | 8.0 | 0.00 | 0.01 | 0.00 | 85 | 1007.5 |
| 20260506114524 | 57 | 256 | 1.0 | 4.0 | 0.00 | 0.01 | 0.00 | 86 | 1007.6 |
| 20260506113006 | 57 | 225 | 2.0 | 5.0 | 0.00 | 0.01 | 0.00 | 86 | 1007.6 |
| 20260506111511 | 56 | 205 | 2.0 | 7.0 | 0.00 | 0.01 | 0.00 | 88 | 1007.7 |
| 20260506110015 | 54 | 239 | 1.0 | 4.0 | 0.00 | 0.01 | 0.00 | 91 | 1007.7 |
| 20260506104546 | 52 | 84 | 1.0 | 4.0 | 0.00 | 0.01 | 0.00 | 95 | 1007.6 |
| 20260506103038 | 0 | 0.0 | 0.0 | 0.00 | 0.01 | 0.00 | 1007.6 | ||
| 20260506101532 | 0 | 0.0 | 0.0 | 0.00 | 0.01 | 0.00 | 1007.8 | ||
| 20260506100039 | 0 | 0.0 | 0.0 | 0.00 | 0.01 | 0.00 | 1008.0 | ||
| 20260506094533 | 0 | 0.0 | 0.0 | 0.00 | 0.01 | 0.00 | 1007.6 | ||
| 20260506093032 | 0 | 0.0 | 0.0 | 0.00 | 0.01 | 0.00 | 1007.6 | ||
| 20260506091531 | 0 | 0.0 | 0.0 | 0.00 | 0.01 | 0.00 | 1007.6 | ||
| 20260506090041 | 0 | 0.0 | 0.0 | 0.00 | 0.01 | 0.00 | 1007.5 | ||
| 20260506084531 | 0 | 0.0 | 0.0 | 0.00 | 0.01 | 0.00 | 1007.7 | ||
| 20260506083037 | 0 | 0.0 | 0.0 | 0.00 | 0.01 | 0.00 | 1007.8 | ||
| 20260506081531 | 0 | 0.0 | 0.0 | 0.00 | 0.01 | 0.00 | 1008.1 | ||
| 20260506073030 | 53 | 0.0 | 0.0 | 0.00 | 0.01 | 0.00 | 89 | 1008.2 | |
| 20260506071526 | 53 | 236 | 0.0 | 2.0 | 0.00 | 0.01 | 0.00 | 89 | 1008.1 |
| 20260506061523 | 56 | 217 | 0.0 | 2.0 | 0.00 | 0.01 | 0.00 | 85 | 1007.9 |
| 20260506044533 | 58 | 319 | 0.0 | 2.0 | 0.00 | 0.01 | 0.00 | 88 | 1008.2 |
| 20260506043017 | 58 | 107 | 0.0 | 2.0 | 0.00 | 0.01 | 0.00 | 88 | 1008.1 |
| 20260506041522 | 58 | 269 | 0.0 | 2.0 | 0.00 | 0.01 | 0.00 | 88 | 1007.8 |
| 20260506040040 | 58 | 286 | 0.0 | 2.0 | 0.00 | 0.01 | 0.00 | 88 | 1007.5 |
| 20260506034526 | 58 | 141 | 0.0 | 2.0 | 0.00 | 0.01 | 0.01 | 89 | 1007.9 |
| 20260506033029 | 58 | 340 | 1.0 | 2.0 | 0.00 | 0.01 | 0.01 | 89 | 1007.9 |
| 20260506031518 | 58 | 294 | 0.0 | 2.0 | 0.00 | 0.01 | 0.01 | 90 | 1007.8 |
| 20260506030024 | 58 | 169 | 0.0 | 1.0 | 0.00 | 0.01 | 0.01 | 90 | 1007.9 |
| 20260506024535 | 57 | 344 | 0.0 | 2.0 | 0.00 | 0.01 | 0.01 | 91 | 1007.7 |
| 20260506023028 | 57 | 328 | 0.0 | 2.0 | 0.00 | 0.01 | 0.01 | 92 | 1007.8 |
| 20260506021542 | 57 | 328 | 0.0 | 2.0 | 0.00 | 0.01 | 0.01 | 92 | 1007.8 |
| 20260506020022 | 56 | 313 | 0.0 | 2.0 | 0.00 | 0.01 | 0.01 | 93 | 1007.8 |
| 20260506014525 | 56 | 313 | 0.0 | 0.0 | 0.00 | 0.01 | 0.01 | 91 | 1007.8 |
| 20260506013028 | 57 | 313 | 0.0 | 2.0 | 0.00 | 0.01 | 0.01 | 90 | 1007.4 |
| 20260506011531 | 58 | 308 | 0.0 | 0.0 | 0.00 | 0.01 | 0.01 | 93 | 1007.5 |
| 20260506010039 | 58 | 308 | 0.0 | 0.0 | 0.00 | 0.01 | 0.01 | 93 | 1007.3 |
| 20260506004522 | 58 | 308 | 0.0 | 0.0 | 0.00 | 0.01 | 0.01 | 92 | 1007.4 |
| 20260506003027 | 59 | 308 | 0.0 | 0.0 | 0.00 | 0.01 | 0.01 | 92 | 1007.3 |
| 20260506001528 | 59 | 308 | 0.0 | 0.0 | 0.00 | 0.01 | 0.01 | 92 | 1007.1 |
| 20260506000031 | 59 | 308 | 0.0 | 2.0 | 0.00 | 0.01 | 0.01 | 91 | 1007.1 |
| 20260505234535 | 60 | 279 | 0.0 | 0.0 | 0.00 | 0.01 | 0.01 | 90 | 1007.0 |
| 20260505233022 | 60 | 279 | 0.0 | 0.0 | 0.00 | 0.01 | 0.01 | 90 | 1006.8 |
| 20260505231530 | 61 | 279 | 0.0 | 2.0 | 0.00 | 0.01 | 0.01 | 88 | 1006.8 |
| 20260505230025 | 61 | 223 | 0.0 | 2.0 | 0.00 | 0.01 | 0.01 | 88 | 1006.5 |
| 20260505224533 | 62 | 64 | 0.0 | 2.0 | 0.00 | 0.01 | 0.01 | 84 | 1006.1 |
| 20260505223020 | 61 | 38 | 0.0 | 5.0 | 0.01 | 0.01 | 0.01 | 83 | 1006.1 |
| 20260505221526 | 61 | 286 | 0.0 | 2.0 | 0.01 | 0.01 | 0.01 | 84 | 1005.5 |
| 20260505220012 | 62 | 228 | 0.0 | 2.0 | 0.01 | 0.01 | 0.01 | 84 | 1004.9 |
| 20260505214516 | 63 | 43 | 1.0 | 6.0 | 0.01 | 0.01 | 0.01 | 79 | 1004.4 |
| 20260505213020 | 64 | 115 | 2.0 | 8.0 | 0.00 | 0.00 | 0.00 | 74 | 1004.6 |
| 20260505211536 | 68 | 43 | 7.0 | 41.0 | 0.00 | 0.00 | 0.00 | 58 | 1005.1 |
| 20260505210026 | 78 | 114 | 5.0 | 18.0 | 0.00 | 0.00 | 0.00 | 34 | 1002.9 |
| 20260505204514 | 78 | 269 | 5.0 | 12.0 | 0.00 | 0.00 | 0.00 | 34 | 1002.6 |
| 20260505203020 | 78 | 205 | 4.0 | 12.0 | 0.00 | 0.00 | 0.00 | 34 | 1002.7 |
| 20260505201521 | 77 | 235 | 6.0 | 15.0 | 0.00 | 0.00 | 0.00 | 35 | 1002.7 |
| 20260505200027 | 77 | 313 | 5.0 | 19.0 | 0.00 | 0.00 | 0.00 | 38 | 1002.9 |
| 20260505194512 | 77 | 222 | 3.0 | 15.0 | 0.00 | 0.00 | 0.00 | 38 | 1002.8 |
| 20260505193015 | 78 | 309 | 5.0 | 15.0 | 0.00 | 0.00 | 0.00 | 35 | 1003.1 |
| 20260505191522 | 79 | 226 | 5.0 | 17.0 | 0.00 | 0.00 | 0.00 | 35 | 1003.2 |
| 20260505190024 | 78 | 173 | 4.0 | 21.0 | 0.00 | 0.00 | 0.00 | 34 | 1003.4 |
| 20260505184542 | 79 | 252 | 4.0 | 18.0 | 0.00 | 0.00 | 0.00 | 35 | 1003.5 |
| 20260505183014 | 80 | 274 | 5.0 | 14.0 | 0.00 | 0.00 | 0.00 | 34 | 1003.8 |
| 20260505181520 | 78 | 266 | 2.0 | 17.0 | 0.00 | 0.00 | 0.00 | 38 | 1003.8 |
| 20260505180021 | 77 | 314 | 4.0 | 16.0 | 0.00 | 0.00 | 0.00 | 38 | 1004.1 |
| 20260505174527 | 77 | 239 | 7.0 | 16.0 | 0.00 | 0.00 | 0.00 | 39 | 1004.4 |